Elizabethton, TN

8:01 PM EDT on June 26, 2017 (GMT -0400)
Elizabethton

Weather History for K0A9 - January, 2013

Change the Weather History Date:

Thursday, January 24, 2013

  Actual Average (KTRI) Record (KTRI)
Temperature  
Mean Temperature 29 °F -  
Max Temperature 39 °F 46 °F 78 °F (1972)
Min Temperature 19 °F 26 °F -8 °F (1963)
Degree Days  
Heating Degree Days 36    
Moisture  
Dew Point 9 °F    
Average Humidity 48    
Maximum Humidity 86    
Minimum Humidity 24    
Precipitation  
Precipitation 0.00 in - - ()
Sea Level Pressure  
Sea Level Pressure 30.26 in    
Wind  
Wind Speed 7 mph (NW)    
Max Wind Speed 17 mph    
Max Gust Speed -    
Visibility 10 miles    
Events      
Averages and records for this station are not official NWS values.
T = Trace of Precipitation, MM = Missing Value Source: NWS Daily Summary

Daily Weather History Graph

Daily Weather History Graph

Search for Another Location

Airport or City:

Trip Planner

Search our weather history database for the weather conditions in past years. The results will help you decide how hot, cold, wet, or windy it might be!

Date:

Astronomy

Jan. 24, 2013 Rise Set
Actual Time 7:35 AM EST 5:46 PM EST
Civil Twilight 7:07 AM EST 6:14 PM EST
Nautical Twilight 6:36 AM EST 6:45 PM EST
Astronomical Twilight 6:06 AM EST 7:16 PM EST
Moon 3:48 PM EST (1/24) 5:30 AM EST (1/24)
Length of Visible Light 11h 06m
Length of Day
10h 11m
Waxing Gibbous, 94% of the Moon is Illuminated
Jan 24
Waxing Gibbous
Jan 26
Full
Feb 3
Last Quarter
Feb 10
New
Feb 17
First Quarter

Hourly Weather History & Observations

Time (EST) Temp. Windchill Dew Point Humidity Pressure Visibility Wind Dir Wind Speed Gust Speed Precip Events Conditions
12:55 AM 28.4 °F - 24.8 °F 86% 30.05 in 10.0 mi Calm Calm - N/A   Overcast
1:15 AM 32.0 °F 28.7 °F 24.8 °F 75% 30.04 in 10.0 mi SW 3.5 mph - N/A   Overcast
1:35 AM 35.6 °F 31.7 °F 24.8 °F 65% 30.04 in 10.0 mi WSW 4.6 mph - N/A   Overcast
1:55 AM 37.4 °F 30.8 °F 26.6 °F 65% 30.04 in 10.0 mi WSW 9.2 mph - N/A   Overcast
2:15 AM 37.4 °F 30.8 °F 26.6 °F 65% 30.03 in 10.0 mi WSW 9.2 mph - N/A   Overcast
2:35 AM 37.4 °F 30.8 °F 26.6 °F 65% 30.03 in 10.0 mi WSW 9.2 mph - N/A   Overcast
2:55 AM 37.4 °F 30.3 °F 26.6 °F 65% 30.04 in 10.0 mi WSW 10.4 mph - N/A   Overcast
3:15 AM 39.2 °F 32.5 °F 26.6 °F 61% 30.04 in 10.0 mi WSW 10.4 mph - N/A   Overcast
3:35 AM 37.4 °F 30.3 °F 28.4 °F 70% 30.05 in 10.0 mi West 10.4 mph - N/A   Overcast
3:55 AM 37.4 °F 28.9 °F 26.6 °F 65% 30.06 in 10.0 mi West 13.8 mph - N/A   Overcast
4:15 AM 37.4 °F 28.9 °F 23.0 °F 56% 30.07 in 10.0 mi WNW 13.8 mph - N/A   Overcast
4:35 AM 35.6 °F 26.6 °F 21.2 °F 56% 30.07 in 10.0 mi WNW 13.8 mph - N/A   Overcast
4:55 AM 35.6 °F 26.6 °F 21.2 °F 56% 30.09 in 10.0 mi West 13.8 mph - N/A   Overcast
5:15 AM 33.8 °F 24.8 °F 19.4 °F 56% 30.10 in 10.0 mi West 12.7 mph - N/A   Mostly Cloudy
5:35 AM 33.8 °F 25.3 °F 19.4 °F 56% 30.11 in 10.0 mi West 11.5 mph - N/A   Partly Cloudy
5:55 AM 32.0 °F 22.1 °F 19.4 °F 60% 30.11 in 10.0 mi West 13.8 mph - N/A   Clear
6:15 AM 32.0 °F 22.5 °F 17.6 °F 55% 30.13 in 10.0 mi West 12.7 mph - N/A   Clear
6:35 AM 30.2 °F 21.9 °F 17.6 °F 60% 30.14 in 10.0 mi West 9.2 mph - N/A   Clear
6:55 AM 30.2 °F 24.3 °F 17.6 °F 60% 30.16 in 10.0 mi West 5.8 mph - N/A   Clear
7:15 AM 28.4 °F 22.2 °F 15.8 °F 59% 30.17 in 10.0 mi West 5.8 mph - N/A   Clear
7:35 AM 28.4 °F 20.4 °F 12.2 °F 51% 30.18 in 10.0 mi WNW 8.1 mph - N/A   Clear
7:55 AM 28.4 °F 20.4 °F 14.0 °F 55% 30.20 in 10.0 mi NW 8.1 mph - N/A   Clear
8:15 AM 28.4 °F 21.2 °F 15.8 °F 59% 30.21 in 10.0 mi Variable 6.9 mph - N/A   Clear
8:35 AM 28.4 °F 17.0 °F 12.2 °F 51% 30.23 in 10.0 mi NW 15.0 mph - N/A   Clear
8:55 AM 30.2 °F 22.6 °F 14.0 °F 51% 30.25 in 10.0 mi NNW 8.1 mph - N/A   Scattered Clouds
9:15 AM 28.4 °F 19.1 °F 12.2 °F 51% 30.26 in 10.0 mi NNW 10.4 mph - N/A   Overcast
9:35 AM 28.4 °F 18.5 °F 12.2 °F 51% 30.27 in 10.0 mi NW 11.5 mph - N/A   Scattered Clouds
9:55 AM 28.4 °F 18.0 °F 12.2 °F 51% 30.29 in 10.0 mi NNW 12.7 mph - N/A   Clear
10:15 AM 26.6 °F 17.5 °F 12.2 °F 55% 30.29 in 10.0 mi North 9.2 mph - N/A   Clear
10:35 AM 26.6 °F 17.5 °F 8.6 °F 47% 30.30 in 10.0 mi NW 9.2 mph - N/A   Clear
10:55 AM 28.4 °F 18.0 °F 8.6 °F 43% 30.31 in 10.0 mi NNW 12.7 mph - N/A   Clear
11:15 AM 26.6 °F 17.5 °F 6.8 °F 43% 30.31 in 10.0 mi NNW 9.2 mph - N/A   Clear
11:35 AM 26.6 °F 16.8 °F 6.8 °F 43% 30.33 in 10.0 mi NNW 10.4 mph - N/A   Clear
11:55 AM 26.6 °F 14.7 °F 3.2 °F 37% 30.34 in 10.0 mi WNW 15.0 mph - N/A   Clear
12:15 PM 28.4 °F 18.0 °F 3.2 °F 34% 30.33 in 10.0 mi WNW 12.7 mph - N/A   Clear
12:35 PM 28.4 °F 18.0 °F 3.2 °F 34% 30.34 in 10.0 mi West 12.7 mph - N/A   Clear
12:55 PM 28.4 °F 18.0 °F 1.4 °F 31% 30.34 in 10.0 mi WNW 12.7 mph - N/A   Clear
1:15 PM 28.4 °F 16.2 °F 1.4 °F 31% 30.34 in 10.0 mi WNW 17.3 mph - N/A   Clear
1:35 PM 26.6 °F 17.5 °F 1.4 °F 34% 30.34 in 10.0 mi NW 9.2 mph - N/A   Clear
1:55 PM 28.4 °F 19.7 °F 3.2 °F 34% 30.33 in 10.0 mi WNW 9.2 mph - N/A   Clear
2:15 PM 28.4 °F 22.2 °F 1.4 °F 31% 30.34 in 10.0 mi Variable 5.8 mph - N/A   Clear
2:35 PM 28.4 °F 22.2 °F 3.2 °F 34% 30.33 in 10.0 mi WNW 5.8 mph - N/A   Clear
2:55 PM 28.4 °F 21.2 °F 1.4 °F 31% 30.34 in 10.0 mi Variable 6.9 mph - N/A   Clear
3:15 PM 28.4 °F 19.7 °F 3.2 °F 34% 30.35 in 10.0 mi NW 9.2 mph - N/A   Clear
3:35 PM 26.6 °F 21.2 °F 1.4 °F 34% 30.37 in 10.0 mi Variable 4.6 mph - N/A   Clear
3:55 PM 28.4 °F 22.2 °F 1.4 °F 31% 30.36 in 10.0 mi Variable 5.8 mph - N/A   Clear
4:15 PM 26.6 °F 18.2 °F -0.4 °F 31% 30.37 in 10.0 mi NE 8.1 mph - N/A   Clear
4:35 PM 26.6 °F 22.6 °F -2.2 °F 29% 30.37 in 10.0 mi NNE 3.5 mph - N/A   Clear
4:55 PM 26.6 °F 20.0 °F -5.8 °F 24% 30.37 in 10.0 mi North 5.8 mph - N/A   Clear
5:15 PM 24.8 °F 17.9 °F -2.2 °F 31% 30.38 in 10.0 mi North 5.8 mph - N/A   Clear
5:35 PM 24.8 °F 19.1 °F -2.2 °F 31% 30.38 in 10.0 mi North 4.6 mph - N/A   Clear
5:55 PM 24.8 °F - -2.2 °F 31% 30.38 in 10.0 mi Calm Calm - N/A   Clear
6:15 PM 24.8 °F - -2.2 °F 31% 30.39 in 10.0 mi Calm Calm - N/A   Clear
6:35 PM 24.8 °F - -0.4 °F 34% 30.40 in 10.0 mi Calm Calm - N/A   Clear
6:55 PM 23.0 °F - -2.2 °F 33% 30.41 in 10.0 mi Calm Calm - N/A   Clear
7:15 PM 21.2 °F - -0.4 °F 39% 30.41 in 10.0 mi Calm Calm - N/A   Clear
7:35 PM 21.2 °F 16.4 °F -0.4 °F 39% 30.41 in 10.0 mi NE 3.5 mph - N/A   Clear
7:55 PM 19.4 °F - 6.8 °F 58% 30.41 in 10.0 mi Calm Calm - N/A   Clear
8:15 PM 19.4 °F - 3.2 °F 49% 30.41 in 10.0 mi Calm Calm - N/A   Clear
8:35 PM 21.2 °F 16.4 °F 1.4 °F 42% 30.39 in 10.0 mi ENE 3.5 mph - N/A   Clear
8:55 PM 21.2 °F 14.9 °F 3.2 °F 46% 30.38 in 10.0 mi ENE 4.6 mph - N/A   Clear
9:15 PM 19.4 °F 12.8 °F 3.2 °F 49% 30.37 in 10.0 mi NE 4.6 mph - N/A   Clear
9:35 PM 19.4 °F 11.5 °F 3.2 °F 49% 30.37 in 10.0 mi ENE 5.8 mph - N/A   Clear
9:55 PM 19.4 °F 14.3 °F 5.0 °F 54% 30.37 in 10.0 mi ENE 3.5 mph - N/A   Clear
10:15 PM 19.4 °F - 3.2 °F 49% 30.35 in 10.0 mi Calm Calm - N/A   Clear
10:35 PM 19.4 °F 12.8 °F 3.2 °F 49% 30.36 in 10.0 mi ENE 4.6 mph - N/A   Clear
10:55 PM 19.4 °F 14.3 °F 3.2 °F 49% 30.36 in 10.0 mi ENE 3.5 mph - N/A   Clear
11:15 PM 19.4 °F 14.3 °F 3.2 °F 49% 30.36 in 10.0 mi ENE 3.5 mph - N/A   Clear
11:35 PM 19.4 °F 10.4 °F 5.0 °F 54% 30.36 in 10.0 mi East 6.9 mph - N/A   Clear
11:55 PM 19.4 °F 11.5 °F 5.0 °F 54% 30.34 in 10.0 mi ENE 5.8 mph - N/A   Clear